• MPC Preparation (Info)

  • MPEC 2022-J83 : 2022 JU1

    The following Minor Planet Electronic Circular may be linked-to from your own Web pages, but must not otherwise be redistributed electronically.

    A form allowing access to any MPEC is at the bottom of this page.


    Read MPEC 2022-J82 Read MPEC 2022-J84


    M.P.E.C. 2022-J83                                  Issued 2022 May 10, 23:39 UT
    
         The Minor Planet Electronic Circulars contain information on unusual
             minor planets and routine data on comets.  They are published
        on behalf of Division F of the International Astronomical Union by the
              Minor Planet Center, Smithsonian Astrophysical Observatory,
                              Cambridge, MA 02138, U.S.A.
    
                 Prepared using the Tamkin Foundation Computer Network
    
                                  MPC@CFA.HARVARD.EDU
                URL https://www.minorplanetcenter.net/    ISSN 1523-6714
    
                                    2022 JU1                                 
    
    
    Observations:
         K22J01U  C2022 04 27.57279316 06 53.874+10 29 23.08         21.63GVEJ083F52
         K22J01U  C2022 04 27.58431416 06 52.248+10 29 34.16         21.65GVEJ083F52
         K22J01U  C2022 04 27.59581216 06 50.640+10 29 45.70         21.34GVEJ083F52
         K22J01U* C2022 05 09.54894415 25 15.517+14 05 24.66         20.77wUEJ083F52
         K22J01U  C2022 05 09.55972615 25 11.451+14 05 35.65         20.79wUEJ083F52
         K22J01U  C2022 05 09.57047815 25 07.436+14 05 46.57         20.85wUEJ083F52
         K22J01U pC2022 05 09.93386915 23 08.21 +14 11 52.5          20.6 GVEJ083L01
         K22J01U pC2022 05 09.93635315 23 07.27 +14 11 55.5          20.4 GVEJ083L01
         K22J01U pC2022 05 09.93883515 23 06.33 +14 11 58.4          20.3 GVEJ083L01
         K22J01U pC2022 05 09.94158515 23 05.21 +14 12 01.6          20.6 GVEJ083L01
         K22J01U pC2022 05 09.94412015 23 04.23 +14 12 03.3          20.8 GVEJ083L01
         K22J01U KC2022 05 09.96390515 22 58.15 +14 12 27.4          19.8 GXEJ083958
         K22J01U KC2022 05 09.97038415 22 55.57 +14 12 35.8          19.8 GXEJ083958
         K22J01U KC2022 05 09.97677015 22 53.12 +14 12 43.0          19.8 GXEJ083958
         K22J01U KC2022 05 10.17900415 21 42.52 +14 16 34.0          20.4 VuEJ083H21
         K22J01U KC2022 05 10.18180215 21 41.43 +14 16 37.4          20.4 VuEJ083H21
         K22J01U KC2022 05 10.18460015 21 40.34 +14 16 40.4                uEJ083H21
         K22J01U KC2022 05 10.20676 15 21 34.21 +14 17 15.0          20.1 RoEJ083691
         K22J01U KC2022 05 10.22937 15 21 25.20 +14 17 42.0          20.1 RoEJ083691
         K22J01U mC2022 05 10.23811015 21 21.630+14 17 51.40         20.53GVEJ083I52
         K22J01U mC2022 05 10.23932715 21 21.130+14 17 53.60         21.00GVEJ083I52
         K22J01U mC2022 05 10.24092415 21 20.480+14 17 55.90               VEJ083I52
         K22J01U mC2022 05 10.24215215 21 20.020+14 17 56.60               VEJ083I52
         K22J01U KC2022 05 10.25216 15 21 16.12 +14 18 09.2          20.3 RoEJ083691
         K22J01U HC2022 05 10.37500215 20 26.210+14 20 24.30               VEJ083G84
         K22J01U HC2022 05 10.37536615 20 26.010+14 20 25.00               VEJ083G84
         K22J01U ^C2022 05 10.43933115 20 04.983+14 22 03.34         20.81GVEJ083568
         K22J01U ^C2022 05 10.44091115 20 04.311+14 22 05.18         20.72GVEJ083568
    
    Observer details:
    568 Mauna Kea.  Observers Y. Ramanjooloo, J. Fairlamb.  Measurers R. Weryk, Y.
        Ramanjooloo, R. Wainscoat.  2.24-m University of Hawaii reflector + CCD.
    691 Steward Observatory, Kitt Peak-Spacewatch.  Observer T. H. Bressi.  0.9-m
        f/3 reflector + CCD.
    958 Observatoire de Dax.  Observer P. Dupouy.  0.50-m f/6 Reflector + CCD.
    F52 Pan-STARRS 2, Haleakala.  Observers J. Bulger, K. Chambers, T. Dukes, T.
        Lowe, A. Schultz, I. Smith.  Measurers S. Chastel, M. Huber, Y.
        Ramanjooloo, R. Wainscoat, R. Weryk, K. Chambers, T. de Boer, J. Fairlamb,
        H. Gao, C.-C. Lin, E. Magnier.  1.8-m Ritchey-Chretien + CCD.
    G84 Mount Lemmon SkyCenter.  Observer D. Rankin.  Measurers E. J. Christensen,
        D. Fay, J. B. Fazekas, D. C. Fuls, A. R. Gibbs, A. D. Grauer, H. Groeller,
        J. K. Hogan, R. A. Kowalski, S. M. Larson, G. J. Leonard, D. Rankin, R. L.
        Seaman, A. Serrano, F. C. Shelly, K. W. Wierzchos.  0.8-m f/7.0 reflector
        + CMOS.
    H21 Astronomical Research Observatory, Westfield.  Observer R. Holmes.
        Measurers T. Linder, R. Holmes, L. Horn.  0.76-m f/3.0 astrograph + CCD.
    I52 Steward Observatory, Mt. Lemmon Station.  Observer R. A. Kowalski.
        Measurers E. J. Christensen, D. Fay, J. B. Fazekas, D. C. Fuls, A. R.
        Gibbs, A. D. Grauer, H. Groeller, J. K. Hogan, R. A. Kowalski, S. M.
        Larson, G. J. Leonard, D. Rankin, R. L. Seaman, A. Serrano, F. C. Shelly,
        K. W. Wierzchos.  1.0-m prime focus + CCD.
    L01 Visnjan Observatory, Tican.  Observer K. Korlevic.  1.0-m f/2.9 reflector
        + CCD.
    
    Orbital elements:
    2022 JU1                                                 Earth MOID = 0.0008 AU
    Epoch 2022 Jan. 21.0 TT = JDT 2459600.5                 Veres                   
    M 136.60266              (2000.0)            P               Q                  
    n   1.02895624     Peri.  292.62926     +0.99401643     +0.01371608             
    a   0.9717132      Node    66.72626     +0.03532774     +0.89839536             
    e   0.2033611      Incl.    6.77468     -0.10335999     +0.43897341             
    P   0.96           H   24.87          G   0.15           U   5                  
    Residuals in seconds of arc
    220427 F52  0.1+  0.0     220509 L01  0.4-  0.3-    220510 I52  0.3-  0.5+
    220427 F52  0.0   0.2-    220509 958  1.2+  0.4-    220510 I52  0.4-  0.9+
    220427 F52  0.1-  0.2+    220509 958  0.3+  0.6+    220510 I52  0.0   0.1+
    220509 F52  0.0   0.1-    220509 958  0.7+  0.5+    220510 691  0.0   0.0
    220509 F52  0.1-  0.0     220510 H21  0.1-  0.8+    220510 G84  2.1+  0.5-
    220509 F52  0.1+  0.1+    220510 H21  0.1+  0.9+    220510 G84  1.3+  0.2-
    220509 L01  0.2-  0.6+    220510 H21  0.3+  0.6+    220510 568 (0.2+  0.1-)
    220509 L01  0.1+  0.7+    220510 691  0.2+  0.0     220510 568  0.0   0.0
    220509 L01  0.4+  0.8+    220510 691  0.6-  0.2-
    220509 L01  0.4-  0.8+    220510 I52  0.1-  0.3-
    
    Ephemeris:
    2022 JU1                 a,e,i = 0.97, 0.20, 7                   q = 0.7741
    Date    TT    R. A. (2000) Decl.     Delta      r    Elong.  Phase     V
    2022 04 10    16 19 10.0 +06 12 53   0.1941  1.1397   131.6    41.1    23.2
    ...
    2022 04 25    16 11 12.1 +09 47 05   0.1300  1.1112   142.0    33.8    22.1
    ...
    2022 05 03    15 53 26.6 +12 04 34   0.09928 1.0924   146.9    30.3    21.4
    ...
    2022 05 09    15 28 22.2 +13 55 28   0.07835 1.0768   148.2    29.6    20.8
    2022 05 10    15 22 43.9 +14 14 05   0.07509 1.0740   148.0    29.8    20.7
    2022 05 11    15 16 33.7 +14 32 34   0.07189 1.0713   147.7    30.3    20.6
    ...
    2022 05 17    14 24 54.1 +16 10 42   0.05458 1.0540   140.8    37.4    20.2
    ...
    2022 05 25    12 17 49.2 +15 27 55   0.03991 1.0292   113.3    64.7    20.2
    ...
    2022 06 09    08 06 59.8 +01 14 59   0.05680 0.9785    48.7   128.8    24.2
    
    M. P. C. Staff               (C) Copyright 2022 MPC           M.P.E.C. 2022-J83
    


    Read MPEC 2022-J82 Read MPEC 2022-J84


    MPEC number:

    Enter an MPEC number in one of the following forms:

    • 1997-B01 (the full form)
    • J97B01 (the packed version of the full form)
    • B01 (the abbreviated form)